Location: Atherton
(17.2661°S, 145.4859°E)
Time: 17:30:14
(UTC+10:00)

ACS3 Solar Sail - Pass Details

Date: 21 May 2025
Orbit: 920 x 1019 km, 97.5° (Epoch: 20 June)

Event Time Altitude Azimuth Distance (km) Brightness Sun altitude
Rises 19:11:49 0° 199° (SSW) 3,770 4.9 -18.9°
Reaches altitude 10° 19:15:44 10° 222° (SW) 2,820 4.5 -19.8°
Maximum altitude 19:18:44 14° 251° (WSW) 2,541 4.7 -20.5°
Drops below altitude 10° 19:21:45 10° 280° (W) 2,812 5.4 -21.2°
Sets 19:25:40 0° 304° (NW) 3,751 6.1 -22.1°
